Regional Weather Roundup
Issued by NWS

Home | Current Version | Previous Version | Text Only | Print | Product List | Glossary On
Versions: 1 2 3 4 5 6 7 8 9 10 11 12 13 14 15 16 17 18 19 20 21 22 23 24 25 26 27 28
000
ASUS45 KCYS 231010
RWRWY

WYOMING REGIONAL WEATHER ROUNDUP
NATIONAL WEATHER SERVICE CHEYENNE WY
400 AM MDT WED APR 23 2014

NOTE:  "FAIR" INDICATES FEW OR NO CLOUDS BELOW 12,000 FEET
WITH NO SIGNIFICANT WEATHER AND/OR OBSTRUCTIONS TO VISIBILITY.

WYZ001-231100-
YELLOWSTONE NATIONAL PARK

CITY           SKY/WX    TMP DP  RH WIND       PRES   REMARKS
LK YELLOWSTONE   N/A     27  22  81 W9G18     29.66F WCI  18
W YELLOWSTONE  NOT AVBL

$$
WYZ002>013-054>058-071-098>099-231100-
NORTHERN WYOMING

CITY           SKY/WX    TMP DP  RH WIND       PRES   REMARKS
JACKSON        MOCLDY    34  28  80 S17G23    29.72R WCI  23
CODY           CLOUDY    46  25  42 W10       29.51S
GREYBULL       CLOUDY    54  30  40 W7        29.47R
WORLAND        MOCLDY    53  39  59 S13       29.46S
SHERIDAN       CLOUDY    58  37  45 NW10      29.41R
BUFFALO        MOCLDY    58  30  34 SE15G23   29.43F
GILLETTE         N/A     56  37  49 SW21      29.45S
HULETT         FAIR      61  41  48 SW18G25   29.46
NEWCASTLE      FAIR      54  41  62 S6        29.51

$$
WYZ014>020-022>026-101>103-231100-
CENTRAL WYOMING

CITY           SKY/WX    TMP DP  RH WIND       PRES   REMARKS
BIG PINEY      MOCLDY    30  24  78 W7        29.74S WCI  23
PINEDALE       PTSUNNY   30  27  86 NW5       29.73R WCI  25
DUBOIS         FAIR      34  23  64 W36G43    29.55S WCI  19
LANDER         PTCLDY    44  28  53 CALM      29.59R
RIVERTON       MOCLDY    41  27  57 W7        29.58R
CASPER         CLOUDY    50  35  56 SW17G23   29.61R
DOUGLAS        PTCLDY    50  38  63 NW9       29.57R

$$
WYZ021-027>030-104>119-231100-
SOUTHERN WYOMING

CITY           SKY/WX    TMP DP  RH WIND       PRES   REMARKS
EVANSTON       FLURRIES  30  29  96 SW20      29.81S WCI  17
FORT BRIDGER   CLOUDY    32  30  93 W14       29.82S WCI  22
ROCK SPRINGS   CLOUDY    35  28  75 W17       29.79R WCI  25
DIXON          RAIN      36  34  92 CALM      29.82R
RAWLINS        FLURRIES  35  32  88 W23       29.72S WCI  23
SARATOGA       CLOUDY    37  32  81 W10G18    29.76R WCI  30
LARAMIE        PTCLDY    47  29  49 SE5       29.66F
CHEYENNE       MOCLDY    53  31  42 SW8       29.60F
TORRINGTON     CLOUDY    51  41  68 E7        29.49S
PINE BLUFFS    FAIR      48  37  66 S10       29.57F

$$



USA.gov is the U.S. government's official web portal to all federal, state and local government web resources and services.